Starlink 11544

operational
NORAD ID: 62984 Int'l Des: 2025-031 Owner: SPXS Country: US Constellation: starlink
LEOCIRCULAR

关于 Starlink 11544

正在加载描述...

实时位置

正在加载3D地球...

即将过境

高度历史

Altitude vs Time

uPlot chart will show altitude changes over time

两行轨道根数

1 62984U 25031D 26034.92112831 .00236477 00000-0 17966-2 0 9992
2 62984 42.9997 204.8128 0001461 313.6920 46.3826 15.70811811 57400
Epoch: Feb 3, 2026 • Age: 23 hours

当前状态

高度 364.9 km
速度 7.69 km/s
星下点 -36.28°S, 61.47°E
发射日期 Feb 11, 2025
运行时间 0.9 years
类型 internet

技术详情

分类 Payload
质量 960.00 kg
干质量 910.00 kg
总质量 960.00 kg
长度 0.30 m
直径 4.10 m
跨度 29.00 m
形状 Box + pan
制造商 SPXS
平台类型 Starlink V2MD
阶段状态 In Orbit
所有者/国家 SPXS/US

大型星座

Loading constellations...